Pittsburgh, PA

9:07 PM EST on February 06, 2016 (GMT -0500)
Allegheny County

Weather History for KAGC - March, 2013

Change the Weather History Date:

Tuesday, March 19, 2013

  Actual Average Record
Temperature  
Mean Temperature 36 °F -  
Max Temperature 44 °F 50 °F 73 °F (2012)
Min Temperature 28 °F 29 °F 10 °F (1993)
Degree Days  
Heating Degree Days 28    
Moisture  
Dew Point 29 °F    
Average Humidity 74    
Maximum Humidity 100    
Minimum Humidity 41    
Precipitation  
Precipitation 0.03 in - - ()
Sea Level Pressure  
Sea Level Pressure 29.80 in    
Wind  
Wind Speed 12 mph (WSW)    
Max Wind Speed 29 mph    
Max Gust Speed 41 mph    
Visibility 8 miles    
Events Rain    
Averages and records for this station are not official NWS values.
T = Trace of Precipitation, MM = Missing Value Source: NWS Daily Summary

Daily Weather History Graph

Daily Weather History Graph

Search for Another Location

Airport or City:

Trip Planner

Search our weather history database for the weather conditions in past years. The results will help you decide how hot, cold, wet, or windy it might be!

Date:

Astronomy

Mar. 19, 2013 Rise Set
Actual Time 7:24 AM EDT 7:31 PM EDT
Civil Twilight 6:57 AM EDT 7:58 PM EDT
Nautical Twilight 6:25 AM EDT 8:29 PM EDT
Astronomical Twilight 5:53 AM EDT 9:02 PM EDT
Moon 12:12 PM EDT (3/19) 2:17 AM EDT (3/19)
Length of Visible Light 13h 00m
Length of Day
12h 06m
Waxing Crescent, 49% of the Moon is Illuminated
Mar 19
Waxing Crescent
Mar 19
First Quarter
Mar 27
Full
Apr 3
Last Quarter
Apr 10
New

Hourly Weather History & Observations

Time (EDT) Temp. Windchill Dew Point Humidity Pressure Visibility Wind Dir Wind Speed Gust Speed Precip Events Conditions
12:53 AM 39.9 °F 34.5 °F 37.0 °F 89% 29.72 in 7.0 mi South 8.1 mph - N/A   Overcast
1:30 AM 39.2 °F 34.2 °F 39.2 °F 100% 29.67 in 4.0 mi South 6.9 mph - 0.01 in Rain Light Rain
1:53 AM 41.0 °F 35.2 °F 39.9 °F 96% 29.71 in 3.0 mi South 9.2 mph - 0.02 in   Overcast
2:05 AM 41.0 °F 35.8 °F 41.0 °F 100% 29.68 in 2.5 mi SSW 8.1 mph - N/A   Overcast
2:22 AM 42.8 °F 38.0 °F 42.8 °F 100% 29.68 in 3.0 mi SSW 8.1 mph - 0.00 in Rain Light Rain
2:33 AM 42.8 °F 39.3 °F 42.8 °F 100% 29.69 in 2.5 mi Variable 5.8 mph - 0.01 in Rain Light Rain
2:43 AM 42.8 °F 35.4 °F 42.8 °F 100% 29.69 in 3.0 mi West 15.0 mph 21.9 mph 0.01 in   Overcast
2:53 AM 42.1 °F 34.9 °F 41.0 °F 96% 29.73 in 4.0 mi West 13.8 mph 21.9 mph 0.01 in   Overcast
3:05 AM 42.8 °F 35.8 °F 39.2 °F 87% 29.69 in 9.0 mi West 13.8 mph 24.2 mph N/A   Overcast
3:53 AM 41.0 °F 32.8 °F 37.9 °F 89% 29.74 in 10.0 mi West 16.1 mph - N/A   Overcast
4:05 AM 39.2 °F 32.5 °F 37.4 °F 93% 29.71 in 8.0 mi WNW 10.4 mph 24.2 mph N/A   Overcast
4:53 AM 37.0 °F 30.4 °F 35.1 °F 93% 29.78 in 10.0 mi NW 9.2 mph 16.1 mph 0.00 in   Overcast
5:20 AM 35.6 °F 30.7 °F 35.6 °F 100% 29.76 in 10.0 mi WNW 5.8 mph - N/A   Overcast
5:38 AM 35.6 °F 27.5 °F 33.8 °F 93% 29.77 in 10.0 mi WSW 11.5 mph - N/A   Overcast
5:53 AM 37.0 °F 29.3 °F 32.0 °F 82% 29.82 in 10.0 mi WSW 11.5 mph - N/A   Overcast
6:53 AM 36.0 °F 25.6 °F 30.9 °F 82% 29.83 in 7.0 mi West 18.4 mph 24.2 mph 0.00 in   Overcast
7:26 AM 35.6 °F 28.0 °F 30.2 °F 81% 29.80 in 6.0 mi SW 10.4 mph - 0.00 in   Overcast
7:53 AM 35.1 °F 29.3 °F 30.0 °F 82% 29.83 in 10.0 mi South 6.9 mph - 0.00 in   Overcast
8:53 AM 37.0 °F 27.4 °F 28.0 °F 70% 29.81 in 10.0 mi SSW 17.3 mph - N/A   Overcast
9:53 AM 37.9 °F 28.2 °F 28.0 °F 68% 29.80 in 10.0 mi SW 18.4 mph 26.5 mph N/A   Mostly Cloudy
10:53 AM 39.9 °F 30.2 °F 26.1 °F 58% 29.77 in 10.0 mi WSW 20.7 mph 35.7 mph N/A   Mostly Cloudy
11:53 AM 41.0 °F 31.1 °F 23.0 °F 49% 29.77 in 10.0 mi WSW 23.0 mph 35.7 mph N/A   Partly Cloudy
12:53 PM 43.0 °F 33.8 °F 24.1 °F 47% 29.76 in 10.0 mi WSW 23.0 mph 32.2 mph N/A   Scattered Clouds
1:53 PM 41.0 °F 30.9 °F 19.0 °F 41% 29.78 in 10.0 mi West 24.2 mph 41.4 mph N/A   Partly Cloudy
2:53 PM 39.0 °F 27.6 °F 17.1 °F 41% 29.80 in 10.0 mi West 27.6 mph 40.3 mph N/A   Partly Cloudy
3:53 PM 36.0 °F 23.9 °F 16.0 °F 44% 29.83 in 10.0 mi West 25.3 mph 39.1 mph N/A   Partly Cloudy
4:53 PM 37.0 °F 24.7 °F 16.0 °F 42% 29.86 in 10.0 mi West 28.8 mph 38.0 mph N/A   Overcast
5:53 PM 34.0 °F 21.8 °F 18.0 °F 52% 29.89 in 10.0 mi WNW 23.0 mph 34.5 mph N/A   Overcast
6:53 PM 33.1 °F 23.0 °F 19.0 °F 56% 29.91 in 10.0 mi West 15.0 mph 32.2 mph N/A   Overcast
7:53 PM 33.1 °F 23.4 °F 17.1 °F 52% 29.93 in 10.0 mi WNW 13.8 mph 27.6 mph N/A   Overcast
8:53 PM 30.9 °F 21.2 °F 17.1 °F 57% 29.96 in 10.0 mi WNW 12.7 mph 28.8 mph N/A   Overcast
9:53 PM 30.9 °F 20.7 °F 15.1 °F 52% 29.97 in 10.0 mi West 13.8 mph 28.8 mph N/A   Clear
10:53 PM 30.0 °F 19.5 °F 16.0 °F 56% 29.98 in 10.0 mi West 13.8 mph 18.4 mph N/A   Clear
11:53 PM 28.9 °F 19.2 °F 17.1 °F 61% 29.98 in 10.0 mi West 11.5 mph 19.6 mph N/A   Clear